Wheeling, WV

2:21 PM EDT on October 22, 2017 (GMT -0400)
Wheeling-Ohio County

Weather History for KHLG - January, 2013

Change the Weather History Date:

Monday, January 28, 2013

  Actual Average Record
Temperature  
Mean Temperature 40 °F 29 °F  
Max Temperature 50 °F 37 °F 63 °F (2002)
Min Temperature 30 °F 22 °F -9 °F (2014)
Degree Days  
Heating Degree Days 25 36  
Month to date heating degree days 953 1008  
Since 1 July heating degree days 2979 3133  
Cooling Degree Days 0    
Month to date cooling degree days 0  
Year to date cooling degree days 0  
Moisture  
Dew Point 39 °F    
Average Humidity 79    
Maximum Humidity 100    
Minimum Humidity 58    
Precipitation  
Precipitation 0.39 in 0.06 in 0.82 in (2009)
Month to date precipitation 1.07 2.45  
Sea Level Pressure  
Sea Level Pressure 30.11 in    
Wind  
Wind Speed 11 mph (SSW)    
Max Wind Speed 18 mph    
Max Gust Speed 26 mph    
Visibility 4 miles    
Events Rain    
T = Trace of Precipitation, MM = Missing Value Source: NWS Daily Summary

Daily Weather History Graph

Daily Weather History Graph

Search for Another Location

Airport or City:

Trip Planner

Search our weather history database for the weather conditions in past years. The results will help you decide how hot, cold, wet, or windy it might be!

Date:

Astronomy

Jan. 28, 2013 Rise Set
Actual Time 7:34 AM EST 5:36 PM EST
Civil Twilight 7:05 AM EST 6:05 PM EST
Nautical Twilight 6:33 AM EST 6:38 PM EST
Astronomical Twilight 6:01 AM EST 7:10 PM EST
Moon 7:30 PM EST (1/28) 7:59 AM EST (1/28)
Length of Visible Light 11h 00m
Length of Day
10h 02m
Full, 98% of the Moon is Illuminated
Jan 28
Full
Feb 3
Last Quarter
Feb 10
New
Feb 17
First Quarter
Feb 25
Full

Hourly Weather History & Observations

Time (EST) Temp. Windchill Dew Point Humidity Pressure Visibility Wind Dir Wind Speed Gust Speed Precip Events Conditions
12:53 AM 30.0 °F 23.2 °F 19.9 °F 66% 30.30 in 6.0 mi SE 6.9 mph - 0.00 in   Overcast
1:14 AM 30.2 °F 26.7 °F 23.0 °F 75% 30.25 in 5.0 mi SE 3.5 mph - 0.02 in Rain Light Freezing Rain
1:53 AM 30.9 °F 24.3 °F 26.1 °F 82% 30.26 in 5.0 mi ESE 6.9 mph - 0.05 in Rain Light Freezing Rain
2:53 AM 32.0 °F 28.7 °F 28.0 °F 85% 30.26 in 5.0 mi SE 3.5 mph - 0.03 in Rain Light Freezing Rain
3:27 AM 32.0 °F 25.6 °F 30.2 °F 93% 30.20 in 4.0 mi SE 6.9 mph - 0.03 in Rain Light Freezing Rain
3:53 AM 33.1 °F 28.7 °F 30.0 °F 89% 30.25 in 4.0 mi ESE 4.6 mph - 0.06 in Rain Rain
4:25 AM 32.0 °F 24.8 °F 30.2 °F 93% 30.19 in 3.0 mi SE 8.1 mph - 0.06 in   Overcast
4:32 AM 32.0 °F 24.2 °F 30.2 °F 93% 30.18 in 3.0 mi SE 9.2 mph - 0.06 in   Overcast
4:53 AM 33.1 °F 26.9 °F 30.9 °F 92% 30.21 in 5.0 mi SSE 6.9 mph - 0.07 in Rain Light Rain
5:00 AM 33.8 °F 27.0 °F 32.0 °F 93% 30.17 in 5.0 mi SSE 8.1 mph - 0.00 in Rain Light Rain
5:18 AM 33.8 °F 28.6 °F 32.0 °F 93% 30.17 in 6.0 mi SSE 5.8 mph - 0.01 in Rain Light Rain
5:40 AM 33.8 °F 27.7 °F 32.0 °F 93% 30.15 in 5.0 mi SSE 6.9 mph - 0.02 in Rain Light Rain
5:53 AM 34.0 °F 28.0 °F 32.0 °F 92% 30.20 in 5.0 mi South 6.9 mph - 0.02 in Rain Light Rain
6:53 AM 35.1 °F 26.4 °F 33.1 °F 92% 30.19 in 7.0 mi South 12.7 mph - 0.01 in   Overcast
7:50 AM 37.4 °F 29.8 °F 35.6 °F 93% 30.13 in 8.0 mi SSW 11.5 mph - 0.00 in Rain Light Rain
7:53 AM 37.0 °F 29.3 °F 35.1 °F 93% 30.17 in 8.0 mi South 11.5 mph - 0.00 in Rain Light Rain
8:53 AM 37.9 °F 30.5 °F 36.0 °F 93% 30.15 in 5.0 mi South 11.5 mph - 0.01 in Rain Light Rain
9:53 AM 41.0 °F 33.5 °F 37.0 °F 86% 30.13 in 10.0 mi SSW 13.8 mph 21.9 mph 0.01 in   Overcast
10:28 AM 41.0 °F 33.5 °F 37.4 °F 87% 30.08 in 2.5 mi SSW 13.8 mph - 0.02 in Rain Light Rain
10:32 AM 41.0 °F 33.5 °F 37.4 °F 87% 30.08 in 3.0 mi SSW 13.8 mph - 0.02 in Rain Light Rain
10:40 AM 41.0 °F 33.1 °F 39.2 °F 93% 30.08 in 4.0 mi SSW 15.0 mph 21.9 mph 0.03 in Rain Light Rain
10:53 AM 42.1 °F 36.1 °F 39.0 °F 89% 30.12 in 3.0 mi SW 10.4 mph - 0.04 in Rain Light Rain
11:00 AM 42.8 °F 36.6 °F 39.2 °F 87% 30.09 in 2.5 mi SW 11.5 mph 17.3 mph 0.01 in Rain Light Rain
11:09 AM 42.8 °F 37.5 °F 39.2 °F 87% 30.09 in 3.0 mi SW 9.2 mph - 0.03 in Rain Rain
11:53 AM 43.0 °F 36.8 °F 39.9 °F 89% 30.10 in 5.0 mi SSW 11.5 mph - 0.07 in Rain Light Rain
12:53 PM 44.1 °F 37.4 °F 42.1 °F 93% 30.07 in 7.0 mi SW 13.8 mph - 0.01 in Rain Light Rain
1:31 PM 44.6 °F 38.1 °F 42.8 °F 93% 30.02 in 6.0 mi SW 13.8 mph 21.9 mph 0.01 in   Overcast
1:53 PM 45.0 °F 38.5 °F 43.0 °F 93% 30.05 in 5.0 mi SW 13.8 mph 20.7 mph 0.01 in   Overcast
2:53 PM 46.9 °F - 44.1 °F 90% 30.04 in 5.0 mi SW 16.1 mph 24.2 mph N/A   Overcast
3:16 PM 46.4 °F 41.1 °F 44.6 °F 93% 30.01 in 6.0 mi SW 11.5 mph 20.7 mph N/A   Overcast
3:53 PM 46.9 °F - 45.0 °F 93% 30.04 in 5.0 mi SW 15.0 mph 24.2 mph N/A   Overcast
4:53 PM 48.0 °F - 46.0 °F 93% 30.05 in 3.0 mi SW 17.3 mph 24.2 mph 0.00 in   Overcast
5:34 PM 48.2 °F - 46.4 °F 93% 30.02 in 4.0 mi SW 13.8 mph 21.9 mph N/A   Overcast
5:53 PM 48.9 °F - 46.9 °F 93% 30.05 in 4.0 mi SW 17.3 mph 23.0 mph N/A   Overcast
6:53 PM 48.9 °F - 48.0 °F 97% 30.07 in 2.5 mi SW 10.4 mph 19.6 mph N/A   Overcast
7:18 PM 48.2 °F - 48.2 °F 100% 30.04 in 3.0 mi SW 12.7 mph 20.7 mph N/A   Overcast
7:53 PM 48.9 °F - 48.0 °F 97% 30.06 in 3.0 mi SW 15.0 mph 19.6 mph 0.00 in   Overcast
8:53 PM 50.0 °F - 48.9 °F 96% 30.07 in 5.0 mi SW 9.2 mph - N/A   Overcast
9:36 PM 50.0 °F - 48.2 °F 94% 30.05 in 5.0 mi WSW 8.1 mph 17.3 mph N/A   Overcast
9:53 PM 50.0 °F - 48.9 °F 96% 30.07 in 4.0 mi WSW 11.5 mph 18.4 mph N/A   Overcast
10:10 PM 50.0 °F - 48.2 °F 94% 30.05 in 3.0 mi WSW 10.4 mph - N/A   Overcast
10:20 PM 50.0 °F - 48.2 °F 94% 30.05 in 2.5 mi SW 10.4 mph - N/A   Overcast
10:30 PM 50.0 °F - 48.2 °F 94% 30.05 in 1.2 mi WSW 9.2 mph - N/A   Overcast
10:35 PM 50.0 °F - 48.2 °F 94% 30.05 in 0.8 mi SW 9.2 mph - N/A   Overcast
10:53 PM 50.0 °F - 48.9 °F 96% 30.07 in 0.8 mi WSW 8.1 mph - N/A   Mist
11:53 PM 50.0 °F - 48.9 °F 96% 30.08 in 0.8 mi WSW 6.9 mph - 0.00 in Rain Light Rain